Location: Unspecified
(54.1780°N, 0.0000°E)
Time: 23:31:23
(UTC+00:00)

Vanguard 2 Rocket - Visible Passes

Search period start: 15 June 2019 00:00
Search period end: 25 June 2019 00:00
Orbit: 554 x 3326 km, 32.9° (Epoch: 15 June)

Date Brightness Start Highest point End Pass type
(mag) Time Alt. Az. Time Alt. Az. Time Alt. Az.
15 Jun 9.7 00:01:11 10° SSW 00:12:54 31° SSE 00:28:16 10° ESE visible
15 Jun 9.9 02:13:05 10° WSW 02:27:23 36° S 02:44:19 10° SE visible
15 Jun 9.7 23:02:50 10° SSW 23:12:44 25° SSE 23:25:58 10° ESE visible
16 Jun 9.8 01:13:28 10° SW 01:26:31 35° S 01:43:12 10° ESE visible
16 Jun 9.7 22:05:17 10° S 22:13:00 19° SE 22:23:01 10° ESE visible
17 Jun 9.6 00:14:20 10° SW 00:25:56 32° SSE 00:41:35 10° ESE visible
17 Jun 9.9 02:26:48 10° WSW 02:40:29 33° S 02:56:56 10° SE visible
17 Jun 9.6 23:15:43 10° SSW 23:25:42 28° SSE 23:39:32 10° ESE visible
18 Jun 9.7 01:27:04 10° WSW 01:39:41 34° S 01:56:02 10° SE visible
18 Jun 9.5 22:17:41 10° SSW 22:25:51 23° SSE 22:37:03 10° ESE visible
19 Jun 9.6 00:27:48 10° SW 00:39:06 33° S 00:54:37 10° ESE visible
19 Jun 9.5 21:20:33 10° S 21:26:25 16° SE 21:33:57 10° ESE visible
19 Jun 9.4 23:28:59 10° SW 23:38:49 30° SSE 23:52:48 10° ESE visible
20 Jun 9.8 01:40:55 10° WSW 01:52:53 31° S 02:08:30 10° SE visible
20 Jun 9.4 22:30:39 10° SSW 22:38:54 25° SSE 22:50:38 10° ESE visible
21 Jun 9.6 00:41:31 10° SW 00:52:21 31° S 01:07:20 10° SE visible
21 Jun 9.4 21:32:57 10° S 21:39:23 19° SSE 21:48:07 10° ESE visible
21 Jun 9.4 23:42:34 10° SW 23:52:04 30° S 00:05:46 10° ESE visible
22 Jun 9.8 01:55:03 10° WSW 02:06:07 27° SSW 02:20:27 10° SSE visible
22 Jun 9.3 22:44:01 10° SW 22:52:08 26° SSE 23:03:53 10° ESE visible
23 Jun 9.6 00:55:30 10° WSW 01:05:40 28° S 01:19:39 10° SE visible
23 Jun 9.2 21:45:58 10° SSW 21:52:32 21° SSE 22:01:46 10° ESE visible
23 Jun 9.4 23:56:24 10° SW 00:05:26 28° S 00:18:24 10° SE visible
24 Jun 9.9 02:09:39 10° WSW 02:19:22 22° SSW 02:31:41 10° SSE visible
24 Jun 9.2 22:57:42 10° SW 23:05:30 26° S 23:16:50 10° SE visible
